星链-37940(STARLINK-37940)

导读

STARLINK-37940(NORAD ID 69690)是SpaceX星链低轨互联网星座的组网卫星,由SpaceX运营,归属美国。卫星发射于2026年上半年,为批量部署的量产星链卫星,采用低地球轨道(LEO)构型,初步轨道参数显示轨道周期约90分钟级,轨道倾角覆盖星链典型的53°(一期壳层)或43°(V2/二代补充)轨道带,近地点高度约220-450km范围(入轨初期或已升轨至工作轨位)。该卫星主要用于扩展星链全球宽带通信覆盖,为地面、航空、海事用户提供低延迟互联网接入服务,截至2026年7月处于在轨工作/轨道部署阶段。

Basic Information
目录编号:
69690
目录名称:
STARLINK-37940
国际标识:
2026-145P
轨道中心:
EARTH
卫星名称:
星链-37940
卫星全名:
星链-37940(STARLINK-37940)
卫星状态:
在轨 (已飞行72 天)
发射日期:
2026-06-25 UTC
国别 :
美国 (US)
星等 :
--
Orbit Information
数据来源 国际轨道数据 AOE轨道数据
星历时间 2026-09-05T11:51:27+0800
6小时前
查看轨道信息
2026-09-03T23:00:00+0800
1天前
查看轨道信息
半长轴 6843.659km 6843.699km
偏心率 0.0002122 0.00016
轨道倾角 97.283° 97.287°
近地点辐角 80.519° 80.437°
升交点赤经 95.063° 93.546°
平近点角 279.630° 87.452°
近地点 464.069km 464.467km
远地点 466.975km 466.657km
周期 93.906分钟 93.907分钟
每日圈数 15.334523 15.334388
Detailed Information
固有亮度:
5
最大亮度:
2.5
卫星平台:
Starlink V1.0
覆盖范围:
全球
运营商:
太空探索技术公司
运营商所在国:
美国
制造商(研发单位):
太空探索技术公司
制造商所在国:
美国
使用方式:
暂无
Satellite Introduction
Starlink 计划是 SpaceX 推出的全球卫星互联网项目,通过发射低轨道卫星,为全球尤其是偏远地区提供高速、低延迟的互联网服务。自 2019 年起,Starlink 已部署数千颗卫星,旨在缩小全球数字鸿沟,推动互联网普及。该项目还为军事、航空等行业提供通信支持,带来广泛经济效益。
2D Orbit Map
3D Orbit Map
Orbit Altitude Analysis Chart
Orbit Inclination Analysis Chart
Orbit Comprehensive Analysis Chart
View Comprehensive Chart
Conjunction Data List
Event ID Objects TCA Miss Dist (km) Collision Risk Probability Collision Risk Index (CRI) Action
CDM_260907-210705-633506-969021
2026-09-07T
21:07:41+0000
0.206 km
中距离
7.739353E-4 高风险 0.93
CDM_260907-193305-633506-969021
2026-09-07T
19:33:43+0000
0.712 km
远距离
8.071408E-5 中风险 0.73
CDM_260907-224105-633506-969021
2026-09-07T
22:41:39+0000
0.975 km
远距离
2.93729E-5 中风险 0.64
CDM_260907-175905-633506-969021
2026-09-07T
17:59:46+0000
1.510 km
极远距离
6.501453E-6 低风险 0.51
CDM_260906-145006-863206-969022
2026-09-06T
14:50:28+0000
2.235 km
极远距离
2.091264E-6 低风险 0.41
CDM_260907-162505-633506-969021
2026-09-07T
16:25:48+0000
2.302 km
极远距离
2.044118E-6 低风险 0.41
CDM_260905-062006-338906-969021
2026-09-05T
06:20:18+0000
2.637 km
极远距离
1.585127E-6 低风险 0.39
CDM_260906-211606-410906-969021
2026-09-06T
21:16:10+0000
2.699 km
极远距离
1.538451E-6 低风险 0.39
CDM_260907-035004-830106-969021
2026-09-07T
03:50:02+0000
2.924 km
极远距离
1.316598E-6 低风险 0.37
CDM_260905-213705-385906-969021
2026-09-05T
21:37:55+0000
2.788 km
极远距离
1.282473E-6 低风险 0.37